DW4707 Campi Bisenzio - Firenze IT current weather conditions

sailwx.info

Last reported at 2015-Jun-10 09:33 UTC.
Time now 2015-Jul-01 12:02 UTC

Location: N 43°50' E 011°08'.
View on Google Maps.

See reports from other nearby stations

  
Tides and Currents Weather Stations Pressure Air Temp Water Temp Dewpoint Dewpoint Depression Visibility Wind Speed Wind Dir Waves Ship Positions
date/time (UTC)wind fromknots sea level pressurealtimeterstation pressurevisibilityair tempwater tempwave heightnotes
2015-Jul-01 10:52 068 33.3
2015-Jul-01 10:47 022 33.9
2015-Jul-01 10:42 357 0 gusting 0 33.9
2015-Jul-01 10:37 045 33.9
2015-Jul-01 10:32 173 33.9
2015-Jul-01 10:27 349 1 gusting 2 33.3
2015-Jul-01 10:22 068 33.9
2015-Jul-01 10:17 225 0 gusting 0 33.3
2015-Jul-01 10:12 164 0 gusting 0 33.3
2015-Jul-01 10:07 248 32.8
2015-Jul-01 10:02 044 2 gusting 2 32.8
2015-Jul-01 09:57 045 32.2
2015-Jul-01 09:52 045 32.2
2015-Jul-01 09:47 041 32.8
2015-Jul-01 09:42 210 32.8
2015-Jul-01 09:37 022 32.2
2015-Jul-01 09:32 068 32.8
2015-Jul-01 09:27 022 32.2
2015-Jul-01 09:22 022 0 gusting 0 32.2
2015-Jul-01 09:17 045 32.2
2015-Jul-01 09:12 045 32.2
2015-Jul-01 09:07 112 1 gusting 1 31.7
2015-Jul-01 09:02 201 31.7
2015-Jul-01 08:57 022 31.7
2015-Jul-01 08:52 045 0 gusting 0 31.7
2015-Jul-01 08:47 280 31.7
2015-Jul-01 08:42 059 31.7
2015-Jul-01 08:37 180 31.7
2015-Jul-01 08:32 126 31.1
2015-Jul-01 08:27 048 31.1
2015-Jul-01 08:22 045 31.1
2015-Jul-01 08:17 180 31.1
2015-Jul-01 08:12 080 30.6
2015-Jul-01 08:07 068 30.6
2015-Jul-01 08:02 135 30.0
2015-Jul-01 07:57 183 30.6
2015-Jul-01 07:52 29.4
2015-Jul-01 07:47 008 29.4
2015-Jul-01 07:42 180 29.4
2015-Jul-01 07:37 135 29.4
2015-Jul-01 07:32 072 28.9
2015-Jul-01 07:27 202 0 gusting 0 28.9
2015-Jul-01 07:22 112 28.9
2015-Jul-01 07:17 068 28.3
2015-Jul-01 07:12 022 28.3
2015-Jul-01 07:07 225 27.8
2015-Jul-01 07:02 225 27.8
2015-Jul-01 06:57 225 27.8
2015-Jul-01 06:52 068 27.8
2015-Jul-01 06:47 063 27.2
2015-Jul-01 06:42 050 27.2
2015-Jul-01 06:37 27.2
2015-Jul-01 06:32 148 26.7
2015-Jul-01 06:27 045 26.7
2015-Jul-01 06:22 225 27.2
2015-Jul-01 06:17 095 0 gusting 0 27.2
2015-Jul-01 06:12 045 26.1
2015-Jul-01 06:07 180 26.1
2015-Jul-01 06:02 209 26.1
2015-Jul-01 05:57 045 25.6
2015-Jul-01 05:52 045 25.6
2015-Jul-01 05:47 022 25.0
2015-Jul-01 05:42 158 25.0
2015-Jul-01 05:37 158 25.0
2015-Jul-01 05:32 210 24.4
2015-Jul-01 05:27 112 24.4
2015-Jul-01 05:22 045 24.4
2015-Jul-01 05:17 056 24.4
2015-Jul-01 05:12 202 23.9
2015-Jul-01 05:07 202 23.3
2015-Jul-01 05:02 260 22.8
2015-Jul-01 04:57 180 21.7
2015-Jul-01 04:52 180 21.7
2015-Jul-01 04:47 102 21.7
2015-Jul-01 04:42 180 21.7
2015-Jul-01 04:37 180 21.7
2015-Jul-01 04:32 195 21.7
2015-Jul-01 04:27 180 21.1
2015-Jul-01 04:22 183 21.1
2015-Jul-01 04:17 188 21.1
2015-Jul-01 04:12 180 21.1
2015-Jul-01 04:07 202 21.1
2015-Jul-01 04:02 202 21.1
2015-Jul-01 03:57 180 21.1
2015-Jul-01 03:52 158 21.1
2015-Jul-01 03:47 158 21.1
2015-Jul-01 03:42 180 21.1
2015-Jul-01 03:37 180 21.1
2015-Jul-01 03:32 220 21.1
2015-Jul-01 03:27 248 21.1
2015-Jul-01 03:22 202 21.1
2015-Jul-01 03:17 173 21.7
2015-Jul-01 03:12 202 21.7
2015-Jul-01 03:07 180 21.7
2015-Jul-01 03:02 168 21.7
2015-Jul-01 02:57 180 21.7
2015-Jul-01 02:52 045 21.7
2015-Jul-01 02:47 085 22.2
2015-Jul-01 02:42 180 22.2
2015-Jul-01 02:37 202 22.2
2015-Jul-01 02:32 202 22.2
2015-Jul-01 02:27 135 22.2
2015-Jul-01 02:22 135 22.2
2015-Jul-01 02:17 206 22.2
2015-Jul-01 02:12 248 22.2
2015-Jul-01 02:07 202 22.2
2015-Jul-01 02:02 189 22.2
2015-Jul-01 01:57 158 22.2
2015-Jul-01 01:52 158 22.2
2015-Jul-01 01:47 180 22.8
2015-Jul-01 01:42 180 22.8
2015-Jul-01 01:37 180 22.8
2015-Jul-01 01:32 180 22.8
2015-Jul-01 01:27 180 23.3
2015-Jul-01 01:22 112 23.3
2015-Jul-01 01:17 112 23.3
2015-Jul-01 01:12 158 23.3
2015-Jul-01 01:07 158 23.3
2015-Jul-01 01:02 158 23.3
2015-Jul-01 00:57 158 23.3
2015-Jul-01 00:52 158 23.3
2015-Jul-01 00:47 158 23.3
2015-Jul-01 00:42 158 23.3
2015-Jul-01 00:37 158 23.3
2015-Jul-01 00:32 158 23.3
2015-Jul-01 00:27 158 23.3
2015-Jul-01 00:22 158 23.3
2015-Jul-01 00:17 158 23.9
2015-Jul-01 00:12 158 23.9
2015-Jul-01 00:07 158 23.9
2015-Jul-01 00:02 158 23.9
2015-Jun-30 23:57 158 23.9
2015-Jun-30 23:52 158 23.9
2015-Jun-30 23:47 166 23.9
2015-Jun-30 23:42 180 24.4
2015-Jun-30 23:37 202 24.4
2015-Jun-30 23:32 219 24.4
2015-Jun-30 23:27 202 24.4
2015-Jun-30 23:22 135 24.4
2015-Jun-30 23:17 135 25.0
2015-Jun-30 23:12 090 25.0
2015-Jun-30 23:07 022 25.0
2015-Jun-30 23:02 202 25.0
2015-Jun-30 22:57 25.0
2015-Jun-30 22:52 202 25.0
2015-Jun-30 22:47 068 25.0
2015-Jun-30 22:42 068 25.6
2015-Jun-30 22:32 163 25.6
2015-Jun-30 22:27 045 25.6
2015-Jun-30 22:22 061 25.6
2015-Jun-30 22:17 022 25.6
2015-Jun-30 22:12 045 25.6
2015-Jun-30 22:07 032 25.6
2015-Jun-30 22:02 225 25.6
2015-Jun-30 21:57 225 25.6
2015-Jun-30 21:52 225 25.6
2015-Jun-30 21:47 245 26.1
2015-Jun-30 21:42 270 26.1
2015-Jun-30 21:37 248 26.1
2015-Jun-30 21:32 315 26.7
2015-Jun-30 21:27 315 26.7
2015-Jun-30 21:22 223 26.7
2015-Jun-30 21:17 080 26.7
2015-Jun-30 21:12 045 26.7
2015-Jun-30 21:07 022 26.7
2015-Jun-30 21:02 081 27.2
2015-Jun-30 20:57 022 0 gusting 1 27.2
2015-Jun-30 20:52 026 27.2
2015-Jun-30 20:47 051 0 gusting 1 27.2
2015-Jun-30 20:37 019 27.8
2015-Jun-30 20:32 045 27.8
2015-Jun-30 20:27 068 27.8
2015-Jun-30 20:22 045 27.8
2015-Jun-30 20:17 045 27.8
2015-Jun-30 20:12 045 27.8
2015-Jun-30 20:07 045 27.8
2015-Jun-30 20:02 022 0 27.8
2015-Jun-30 19:57 022 0 gusting 1 27.8
2015-Jun-30 19:52 022 1 gusting 1 27.8
2015-Jun-30 19:47 022 27.8
2015-Jun-30 19:42 27.8
2015-Jun-30 19:37 026 0 gusting 6 28.3
2015-Jun-30 19:32 025 28.3
2015-Jun-30 19:27 068 0 gusting 1 28.3
2015-Jun-30 19:22 036 0 gusting 0 28.3
2015-Jun-30 19:17 022 28.9
2015-Jun-30 19:12 022 28.9
2015-Jun-30 19:07 341 28.9
2015-Jun-30 19:02 022 28.9
2015-Jun-30 18:57 068 0 gusting 1 29.4
2015-Jun-30 18:52 059 0 gusting 0 29.4
2015-Jun-30 18:42 045 29.4
2015-Jun-30 18:37 052 1 gusting 1 30.0
2015-Jun-30 18:32 010 0 gusting 0 30.0
2015-Jun-30 18:27 045 30.0
2015-Jun-30 18:22 30.0
2015-Jun-30 18:17 022 30.6
2015-Jun-30 18:12 022 0 gusting 0 30.6
2015-Jun-30 18:07 022 0 gusting 0 30.6
2015-Jun-30 18:02 339 0 gusting 0 30.6
2015-Jun-30 17:57 315 0 gusting 1 30.6
2015-Jun-30 17:52 068 31.1
2015-Jun-30 17:47 31.1
2015-Jun-30 17:42 338 31.1
2015-Jun-30 17:37 052 31.1
2015-Jun-30 17:32 022 0 gusting 1 31.1
2015-Jun-30 17:27 045 31.1
2015-Jun-30 17:22 034 0 gusting 1 31.1
2015-Jun-30 17:17 31.1
2015-Jun-30 17:12 31.1
2015-Jun-30 17:07 103 1 gusting 1 31.7
2015-Jun-30 17:02 31.7
2015-Jun-30 16:57 022 1 gusting 4 31.7
2015-Jun-30 16:52 308 0 gusting 0 31.7
2015-Jun-30 16:47 052 0 gusting 0 31.7
2015-Jun-30 16:42 023 0 gusting 0 31.7
2015-Jun-30 16:37 356 0 gusting 0 31.7
2015-Jun-30 16:32 059 0 gusting 0 31.7
2015-Jun-30 16:27 022 0 gusting 2 31.7
2015-Jun-30 16:22 32.2
2015-Jun-30 16:17 002 32.2
2015-Jun-30 16:12 068 0 gusting 2 32.2
2015-Jun-30 16:07 006 32.2
2015-Jun-30 16:02 353 32.2
2015-Jun-30 15:57 300 1 gusting 1 32.2
2015-Jun-30 15:52 037 0 gusting 1 32.2
2015-Jun-30 15:42 045 32.2
2015-Jun-30 15:37 004 32.2
2015-Jun-30 15:32 022 0 gusting 0 32.2
2015-Jun-30 15:27 32.2
2015-Jun-30 15:22 338 1 gusting 2 32.8
2015-Jun-30 15:17 045 0 gusting 2 32.8
2015-Jun-30 15:12 110 0 gusting 0 32.8
2015-Jun-30 15:07 056 0 gusting 2 32.8
2015-Jun-30 15:02 338 32.8
2015-Jun-30 14:57 023 0 gusting 0 32.8
2015-Jun-30 14:52 036 32.8
2015-Jun-30 14:47 32.8
2015-Jun-30 14:42 022 32.8
2015-Jun-30 14:37 326 0 gusting 1 32.8
2015-Jun-30 14:32 225 32.8
2015-Jun-30 14:27 022 32.8
2015-Jun-30 14:22 042 0 gusting 0 32.8
2015-Jun-30 14:17 334 33.3
2015-Jun-30 14:12 027 33.3
2015-Jun-30 14:07 185 33.3
2015-Jun-30 14:02 068 0 gusting 0 33.3
2015-Jun-30 13:57 065 33.3
2015-Jun-30 13:52 045 0 gusting 0 33.3
2015-Jun-30 13:47 093 33.3
2015-Jun-30 13:42 045 33.3
2015-Jun-30 13:37 040 33.3
2015-Jun-30 13:32 022 33.3
2015-Jun-30 13:27 33.3
2015-Jun-30 13:22 33.3
2015-Jun-30 13:17 057 33.3
2015-Jun-30 13:12 135 2 gusting 2 33.3
2015-Jun-30 13:07 022 0 gusting 1 33.3
2015-Jun-30 13:02 338 33.3
2015-Jun-30 12:57 068 33.3
2015-Jun-30 12:52 059 0 gusting 0 33.3
2015-Jun-30 12:47 090 32.8
2015-Jun-30 12:42 073 0 gusting 0 32.2
2015-Jun-30 12:37 005 2 gusting 2 32.2
2015-Jun-30 12:32 045 0 gusting 2 32.2
2015-Jun-30 12:27 045 32.2
2015-Jun-30 12:22 073 0 gusting 8 32.8
2015-Jun-30 12:17 226 1 gusting 8 32.8
2015-Jun-30 12:12 022 4 gusting 6 32.8
2015-Jun-30 12:07 252 1 gusting 4 33.3
2015-Jun-30 12:02 045 32.8
2015-Jun-30 11:57 017 32.2
2015-Jun-30 11:52 094 32.2
2015-Jun-30 11:47 024 32.2
2015-Jun-30 11:42 022 5 gusting 6 32.8
2015-Jun-30 11:37 015 0 gusting 0 32.8
2015-Jun-30 11:32 022 0 gusting 0 32.8
2015-Jun-30 11:27 090 32.8
2015-Jun-30 11:22 022 1 gusting 1 32.8
2015-Jun-30 11:17 045 1 gusting 1 32.8
2015-Jun-30 11:12 340 33.3
2015-Jun-30 11:07 042 32.8
2015-Jun-30 11:02 045 33.3
2015-Jun-30 10:57 008 0 gusting 1 32.8
2015-Jun-30 10:52 112 33.3
2015-Jun-30 10:47 068 32.8
2015-Jun-30 10:42 199 31.7
2015-Jun-30 10:37 090 31.7
2015-Jun-30 10:32 068 31.7
2015-Jun-30 10:27 022 31.7
2015-Jun-30 10:22 022 32.2
2015-Jun-30 10:17 068 31.7
2015-Jun-30 10:12 072 32.2
2015-Jun-30 10:07 045 32.2
2015-Jun-30 10:02 022 32.2
2015-Jun-30 09:57 073 32.2
2015-Jun-30 09:52 135 0 gusting 0 32.2
2015-Jun-30 09:47 31.7
2015-Jun-30 09:42 060 32.2
2015-Jun-30 09:37 022 0 gusting 0 31.7
2015-Jun-30 09:32 045 31.7
2015-Jun-30 09:27 338 0 gusting 0 31.7
2015-Jun-30 09:22 068 31.7
2015-Jun-30 09:17 202 31.1
2015-Jun-30 09:12 239 30.6
2015-Jun-30 09:07 202 31.1
2015-Jun-30 09:02 248 31.1
2015-Jun-30 08:57 073 31.1
2015-Jun-30 08:52 139 30.6
2015-Jun-30 08:47 158 30.0
2015-Jun-30 08:42 172 30.0
2015-Jun-30 08:37 022 29.4
2015-Jun-30 08:32 045 29.4
2015-Jun-30 08:27 070 29.4
2015-Jun-30 08:22 045 0 gusting 1 29.4
2015-Jun-30 08:17 180 29.4
2015-Jun-30 08:12 308 1 gusting 1 29.4
2015-Jun-30 08:07 159 28.9
2015-Jun-30 08:02 022 0 gusting 0 28.9
2015-Jun-30 07:57 060 28.9
2015-Jun-30 07:52 068 28.3
2015-Jun-30 07:47 022 27.8
2015-Jun-30 07:42 135 28.3
2015-Jun-30 07:37 134 27.8
2015-Jun-30 07:32 135 27.8
2015-Jun-30 07:27 112 27.2
2015-Jun-30 07:22 022 27.2
2015-Jun-30 07:17 270 27.2
2015-Jun-30 07:12 060 27.2
2015-Jun-30 07:07 177 26.7
2015-Jun-30 07:02 022 26.7
2015-Jun-30 06:57 045 26.1
2015-Jun-30 06:52 045 26.1
2015-Jun-30 06:47 045 25.6
2015-Jun-30 06:42 047 26.1
2015-Jun-30 06:37 158 26.1
2015-Jun-30 06:32 068 25.6
2015-Jun-30 06:27 043 25.6
2015-Jun-30 06:22 112 25.6
2015-Jun-30 06:17 338 25.6
2015-Jun-30 06:12 144 25.0
2015-Jun-30 06:07 022 24.4
2015-Jun-30 06:02 24.4
2015-Jun-30 05:57 166 24.4
2015-Jun-30 05:52 158 24.4
2015-Jun-30 05:47 180 23.9
2015-Jun-30 05:42 210 23.9
2015-Jun-30 05:37 292 23.3
2015-Jun-30 05:32 180 23.3
2015-Jun-30 05:27 180 23.3
2015-Jun-30 05:22 202 22.8
2015-Jun-30 05:17 068 22.8
2015-Jun-30 05:12 135 22.2
2015-Jun-30 05:07 166 22.2
2015-Jun-30 05:02 180 21.7
2015-Jun-30 04:57 167 21.7
2015-Jun-30 04:52 158 21.7
2015-Jun-30 04:47 045 21.7
2015-Jun-30 04:42 041 21.7
2015-Jun-30 04:37 21.7
2015-Jun-30 04:32 105 21.7
2015-Jun-30 04:27 133 21.7
2015-Jun-30 04:22 180 21.7
2015-Jun-30 04:17 21.1
2015-Jun-30 04:12 290 21.1
2015-Jun-30 04:07 202 21.1
2015-Jun-30 04:02 172 21.1
2015-Jun-30 03:57 141 21.1
2015-Jun-30 03:52 045 21.1
2015-Jun-30 03:47 112 21.1
2015-Jun-30 03:42 040 21.1
2015-Jun-30 03:37 022 21.1
2015-Jun-30 03:32 158 21.1
2015-Jun-30 03:27 21.1
2015-Jun-30 03:22 21.1
2015-Jun-30 03:17 21.1
2015-Jun-30 03:12 022 21.1
2015-Jun-30 03:07 158 21.1
2015-Jun-30 03:02 180 21.1
2015-Jun-30 02:57 180 21.1
2015-Jun-30 02:52 202 21.1
2015-Jun-30 02:47 180 21.7
2015-Jun-30 02:42 185 21.7
2015-Jun-30 02:37 180 21.7
2015-Jun-30 02:32 180 21.7
2015-Jun-30 02:27 118 21.7
2015-Jun-30 02:22 158 21.7
2015-Jun-30 02:17 135 21.7
2015-Jun-30 02:12 067 21.7
2015-Jun-30 02:07 022 22.2
2015-Jun-30 02:02 155 22.2
2015-Jun-30 01:57 198 22.2
2015-Jun-30 01:52 202 22.2
2015-Jun-30 01:47 180 22.2
2015-Jun-30 01:42 116 22.2
2015-Jun-30 01:37 180 22.8
2015-Jun-30 01:32 026 22.8
2015-Jun-30 01:27 180 22.8
2015-Jun-30 01:22 180 22.8
2015-Jun-30 01:17 180 22.8
2015-Jun-30 01:12 180 22.8
2015-Jun-30 01:07 158 22.8
2015-Jun-30 01:02 158 22.8
2015-Jun-30 00:57 158 22.8
2015-Jun-30 00:52 158 23.3
2015-Jun-30 00:47 158 23.3
2015-Jun-30 00:42 112 23.3
2015-Jun-30 00:37 112 23.3
2015-Jun-30 00:32 090 23.3
2015-Jun-30 00:27 180 23.3
2015-Jun-30 00:22 180 23.3
2015-Jun-30 00:17 180 23.9
2015-Jun-30 00:12 202 23.9
2015-Jun-30 00:07 202 23.9
2015-Jun-30 00:02 182 23.9
2015-Jun-29 23:57 202 23.9
2015-Jun-29 23:52 202 23.9
2015-Jun-29 23:47 184 23.9
2015-Jun-29 23:42 227 23.9
2015-Jun-29 23:37 225 23.9
2015-Jun-29 23:32 191 23.9
2015-Jun-29 23:27 158 23.9
2015-Jun-29 23:22 158 24.4
2015-Jun-29 23:17 131 24.4
2015-Jun-29 23:12 180 24.4
2015-Jun-29 23:07 158 24.4
2015-Jun-29 23:02 158 24.4
2015-Jun-29 22:57 035 24.4
2015-Jun-29 22:52 022 24.4
2015-Jun-29 22:47 022 24.4
2015-Jun-29 22:42 045 24.4
2015-Jun-29 22:37 068 24.4
2015-Jun-29 22:32 024 25.0
2015-Jun-29 22:27 158 25.0
2015-Jun-29 22:22 158 25.0
2015-Jun-29 22:17 355 25.0
2015-Jun-29 22:12 144 25.6
2015-Jun-29 22:07 090 25.6
2015-Jun-29 22:02 164 25.6
2015-Jun-29 21:57 202 25.6
2015-Jun-29 21:52 270 25.6
2015-Jun-29 21:47 180 25.6
2015-Jun-29 21:42 155 25.6
2015-Jun-29 21:37 135 26.1
2015-Jun-29 21:32 198 26.1
2015-Jun-29 21:27 099 26.1
2015-Jun-29 21:22 225 26.1
2015-Jun-29 21:17 171 26.7
2015-Jun-29 21:12 167 26.7
2015-Jun-29 21:07 26.7
2015-Jun-29 21:02 139 26.7
2015-Jun-29 20:57 112 27.2
2015-Jun-29 20:52 27.2
2015-Jun-29 20:47 325 27.2
2015-Jun-29 20:42 190 27.2
2015-Jun-29 20:37 202 27.2
2015-Jun-29 20:32 202 27.2
2015-Jun-29 20:27 022 27.2
2015-Jun-29 20:22 022 27.2
2015-Jun-29 20:17 022 27.8
2015-Jun-29 20:12 022 27.8
2015-Jun-29 20:07 045 27.8
2015-Jun-29 20:02 27.8
2015-Jun-29 19:57 068 27.8
2015-Jun-29 19:52 27.8
2015-Jun-29 19:47 27.8
2015-Jun-29 19:42 315 27.8
2015-Jun-29 19:37 315 28.3
2015-Jun-29 19:32 270 28.3
2015-Jun-29 19:27 043 28.3
2015-Jun-29 19:22 068 28.3
2015-Jun-29 19:17 112 28.3
2015-Jun-29 19:12 045 28.3
2015-Jun-29 19:07 202 28.3
2015-Jun-29 19:02 036 28.3
2015-Jun-29 18:57 28.3
2015-Jun-29 18:52 022 28.9
2015-Jun-29 18:47 022 28.9
2015-Jun-29 18:42 068 28.9
2015-Jun-29 18:37 022 28.9
2015-Jun-29 18:32 28.9
2015-Jun-29 18:27 29.4
2015-Jun-29 18:22 29.4
2015-Jun-29 18:17 332 29.4
2015-Jun-29 18:12 29.4
2015-Jun-29 18:07 30.0
2015-Jun-29 18:02 355 30.0
2015-Jun-29 17:57 045 30.0
2015-Jun-29 17:52 022 30.6
2015-Jun-29 17:47 292 30.6
2015-Jun-29 17:42 292 30.6
2015-Jun-29 17:37 290 30.6
2015-Jun-29 17:32 180 30.6
2015-Jun-29 17:27 158 30.6
2015-Jun-29 17:22 158 30.6
2015-Jun-29 17:17 083 30.6
2015-Jun-29 17:12 124 31.1
2015-Jun-29 17:07 064 31.1
2015-Jun-29 17:02 022 31.1
2015-Jun-29 16:57 090 31.1
2015-Jun-29 16:52 002 31.1
2015-Jun-29 16:47 034 31.1
2015-Jun-29 16:42 357 31.1
2015-Jun-29 16:37 009 31.1
2015-Jun-29 16:32 005 31.1
2015-Jun-29 16:27 31.1
2015-Jun-29 16:22 005 31.1
2015-Jun-29 16:17 022 31.1
2015-Jun-29 16:12 068 31.7
2015-Jun-29 16:07 022 31.7
2015-Jun-29 16:02 048 31.7
2015-Jun-29 15:57 31.7
2015-Jun-29 15:52 292 31.7
2015-Jun-29 15:47 022 31.7
2015-Jun-29 15:42 022 31.7
2015-Jun-29 15:37 112 1 gusting 2 31.7
2015-Jun-29 15:32 067 31.7
2015-Jun-29 15:27 135 31.7
2015-Jun-29 15:22 112 31.7
2015-Jun-29 15:17 025 31.7
2015-Jun-29 15:12 31.7
2015-Jun-29 15:07 338 31.7
2015-Jun-29 15:02 045 31.7
2015-Jun-29 14:57 338 31.7
2015-Jun-29 14:52 007 31.7
2015-Jun-29 14:47 068 31.7
2015-Jun-29 14:42 112 31.7
2015-Jun-29 14:37 130 31.7
2015-Jun-29 14:32 046 31.7
2015-Jun-29 14:27 068 31.7
2015-Jun-29 14:22 202 31.7
2015-Jun-29 14:17 022 31.7
2015-Jun-29 14:12 135 32.2
2015-Jun-29 14:07 015 32.2
2015-Jun-29 14:02 084 32.2
2015-Jun-29 13:57 112 32.2
2015-Jun-29 13:52 022 32.2
2015-Jun-29 13:47 009 0 gusting 0 32.2
2015-Jun-29 13:42 158 32.2
2015-Jun-29 13:37 006 32.2
2015-Jun-29 13:32 022 32.2
2015-Jun-29 13:27 068 31.7
2015-Jun-29 13:22 202 31.7
2015-Jun-29 13:17 31.7
2015-Jun-29 13:12 338 31.7
2015-Jun-29 13:07 31.7
2015-Jun-29 13:02 31.7
2015-Jun-29 12:57 31.7
2015-Jun-29 12:52 31.7
2015-Jun-29 12:47 109 31.7
2015-Jun-29 12:42 022 31.7
2015-Jun-29 12:37 106 31.7
2015-Jun-29 12:32 072 31.7
2015-Jun-29 12:27 338 32.2
2015-Jun-29 12:22 084 31.7
2015-Jun-29 12:17 022 31.7
2015-Jun-29 12:12 158 31.1
2015-Jun-29 12:07 003 31.1
2015-Jun-29 12:02 045 0 gusting 0 31.1